{"data":{"norad_id":56383,"epoch":"2026-05-25T05:33:59.793120Z","epoch_age_seconds":51850,"freshness":"FRESH","line1":"1 56383U 23061K   26145.23194205  .00001005  00000+0  46037-4 0  9990","line2":"2 56383  43.0023 125.8122 0001355 262.4741  97.5957 15.27581672168450","mean_motion":15.27581672,"eccentricity":0.0001355,"inclination_deg":43.0023,"raan_deg":125.8122,"arg_perigee_deg":262.4741,"mean_anomaly_deg":97.5957,"bstar":4.6037e-5,"rev_number":16845,"period_min":94.266645534878,"perigee_km":482.1143994371,"apogee_km":483.97377951234,"semimajor_km":6861.1810894747,"source":"CELESTRAK","updated_at":"2026-05-25T13:38:18.012037Z"}}